#timestamp,LO_Frequency,Hit,StdDev 
1524560415.1,286046996.6,N
1524560416.0,286046996.6,N
1524560435.8,286046999.5,N
1524560455.6,286046998.3,N
1524560475.5,286046998.7,N
1524560495.3,286046996.6,N
1524560515.1,286046996.6,N
1524560535.9,286046998.2,N
1524560555.7,286047000.7,N
1524560575.6,286047000.1,N
1524560595.4,286047000.3,N
1524560615.2,286047000.5,N
1524560635.1,286047000.2,N
1524560636.0,286047000.2,N
1524560655.8,286046998.6,N
1524560675.6,286047001.2,N
1524560695.5,286047001.0,N
1524560715.3,286047000.8,N
1524560735.2,286046998.6,N
1524560755.9,286046999.9,N
1524560775.7,286047000.6,N
1524560795.6,286047001.2,N
1524560815.4,286047001.0,N
1524560835.2,286047000.8,N
1524560855.1,286046998.6,N
1524560856.0,286046998.6,N
1524560875.8,286047001.2,N
1524560895.7,286046998.5,N
1524560915.5,286046999.2,N
1524560935.3,286046999.3,N
1524560955.2,286046997.2,N
1524560975.0,286046997.3,N
1524560975.9,286046997.3,N
1524560995.8,286046998.6,N
1524561015.6,286046998.6,N
1524561035.4,286047000.6,N
1524561055.3,286046998.2,N
1524561075.1,286047000.7,N
1524561095.8,286047000.8,N
1524561115.7,286046998.6,N
1524561135.5,286046998.9,N
1524561155.4,286046998.6,N
1524561175.2,286047000.6,N
1524561195.0,286047000.1,N
1524561195.9,286047000.1,N
1524561215.8,286047000.9,N
1524561235.6,286046998.1,N
1524561255.4,286047000.6,N
1524561275.3,286046998.5,N
1524561295.1,286047001.1,N
1524561315.9,286047000.3,N
1524561335.7,286046999.8,N
1524561355.5,286047002.8,N
1524561375.4,286047001.6,N
1524561395.2,286047002.0,N
1524561415.1,286047002.3,N
1524561416.0,286047002.3,N
1524561435.8,286047002.4,N
1524561455.6,286047002.1,N
1524561475.5,286047000.1,N
1524561495.3,286047001.1,N
1524561515.2,286046998.6,N
1524561535.9,286046998.1,N
1524561555.7,286046999.9,N
1524561575.6,286047002.2,N
1524561595.4,286046999.9,N
1524561615.2,286047000.9,N
1524561635.1,286047000.6,N
1524561636.0,286047000.6,N
1524561655.8,286046998.7,N
1524561675.7,286046998.4,N
1524561695.5,286046999.3,N
1524561715.3,286046998.5,N
1524561735.2,286047000.0,N
1524561755.0,286046999.7,N
1524561755.9,286046999.7,N
1524561775.7,286047000.1,N
1524561795.6,286047001.6,N
1524561815.4,286047002.8,N
1524561835.3,286047002.6,N
1524561855.1,286047002.3,N
1524561875.8,286047000.9,N
1524561895.7,286047000.5,N
1524561915.5,286046999.8,N
1524561935.4,286047002.3,N
1524561955.2,286047002.8,N
1524561975.0,286047000.7,N
1524561975.9,286047000.7,N
1524561995.8,286046998.3,N
1524562015.6,286046998.3,N
1524562035.4,286046998.3,N
1524562055.3,286047000.8,N
1524562075.1,286047001.0,N
1524562095.9,286047002.8,N
1524562115.7,286046998.6,N
1524562135.5,286047000.0,N
1524562155.4,286046998.1,N
1524562175.2,286047001.0,N
1524562195.0,286047000.7,N
1524562196.0,286047000.7,N
1524562215.8,286046998.1,N
1524562235.6,286047000.6,N
1524562255.5,286046999.8,N
1524562275.3,286047000.1,N
1524562295.1,286047000.4,N
1524562315.9,286046999.8,N
1524562335.7,286047002.2,N
1524562355.6,286047000.3,N
1524562375.4,286046999.0,N
1524562395.2,286046998.7,N
1524562415.1,286046998.6,N
1524562416.0,286046998.6,N
1524562435.8,286046998.6,N
1524562455.6,286047000.8,N
1524562475.5,286047002.8,N
1524562495.3,286047002.7,N
1524562515.2,286047002.2,N
1524562535.9,286047002.0,N
1524562555.7,286047001.4,N
1524562575.6,286047004.4,N
1524562595.4,286047001.6,N
1524562615.2,286047002.0,N
1524562635.1,286047001.7,N
1524562636.0,286047001.7,N
1524562655.8,286047001.5,N
1524562675.7,286047001.9,N
1524562695.5,286047004.3,N
1524562715.3,286047002.3,N
1524562735.2,286046999.8,N
1524562755.0,286047002.3,N
1524562755.9,286047002.3,N
1524562775.8,286047004.4,N
1524562795.6,286047003.5,N
1524562815.4,286047001.5,N
1524562835.3,286047002.2,N
1524562855.1,286047001.8,N
1524562875.9,286047004.0,N
1524562895.7,286047004.0,N
1524562915.5,286047002.0,N
1524562935.4,286047001.4,N
1524562955.2,286047002.3,N
1524562975.1,286046999.7,N
1524562976.0,286046999.7,N
1524562995.8,286047002.7,N
1524563015.6,286047001.9,N
1524563035.5,286047001.3,N
1524563055.3,286047002.8,N
1524563075.1,286047002.6,N
1524563095.9,286047002.3,N
1524563115.7,286047002.5,N
1524563135.6,286047002.8,N
1524563155.4,286047002.7,N
1524563175.2,286047000.6,N
1524563195.1,286047000.7,N
1524563196.0,286047000.7,N
1524563215.8,286047001.9,N
1524563235.7,286047000.1,N
1524563255.5,286047001.3,N
1524563275.3,286047002.2,N
1524563295.2,286047001.4,N
1524563315.0,286047001.3,N
1524563315.9,286047001.3,N
1524563335.7,286047001.7,N
1524563355.6,286047002.7,N
1524563375.4,286047001.8,N
1524563395.3,286047004.3,Y
1524563415.1,286047001.8,P
1524563416.0,286047001.8,P
1524563435.8,286047004.3,P
1524563455.7,286047004.2,Y
1524563475.5,286047000.1,P
1524563495.4,286047002.8,N
1524563515.2,286047000.9,N
1524563535.0,286047002.4,N
1524563535.9,286047002.4,N
1524563555.8,286046999.8,N
1524563575.6,286047000.7,N
1524563595.4,286047001.2,N
1524563615.3,286046997.1,N
1524563635.1,286046997.2,N
1524563655.9,286046999.2,N
1524563675.7,286046998.2,N
1524563695.5,286047001.1,N
1524563715.4,286046999.4,N
1524563735.2,286046999.3,N
1524563755.1,286047001.1,N
1524563756.0,286047001.1,N
1524563775.8,286047000.8,N
1524563795.6,286047001.0,N
1524563815.5,286047000.9,N
1524563835.3,286046998.8,N
1524563855.1,286046998.1,N
1524563875.9,286046998.2,N
1524563895.7,286046998.1,N
1524563915.6,286046999.5,N
1524563935.4,286046998.9,N
1524563955.2,286046999.3,N
1524563975.1,286046996.9,N
1524563976.0,286046996.9,N
1524563995.8,286046999.4,N
